ONEWEB-0048, 45153

Orbit data source: Space-Track

ONEWEB-0048, 45153 is a payload satellite owned by One Web (UK) in LEO that was launched on Thu, 06 Feb 2020 UTC via a SOYUZ-2-1B launch vehicle from the Tyuratam Missile And Space Complex (TTMTR). Payload-class satellites include a variety of spacecraft equipped with specific instruments for various scientific and technological missions. These include communications satellites like Starlink; space stations such as the ISS; scientific satellites like the Hubble; Earth observation satellites from companies like Planet Labs, Umbra, and HawkEye 360; GPS; miniature CubeSats for education and research; and military/defense satellites.

Loading next visibility...
Identifier
45153, 2020-008Y
Orbit
LEO
Country
Flag of UKUK
Related business
Manufacturer
One Web
Mission
Operational Commercial Communications
Bus & Motor
ARROW, Unknown motor
Mass
148 kg wet, ~140 kg dry
Launch date (UTC)
2020-02-06 (6 years ago)
Launch vehicle
SOYUZ-2-1B
Launch site
Tyuratam Missile And Space Complex (TTMTR)
Object type
Payload
Rocket body
Debris
Shape & HBR
Trap Box + 2 Pan, 6.7 m
Radar Cross Section
3.464 m², Large (>1 m²)

Expand to show TLE details & history
Last TLE update: 10 hours ago

TLE from 10 hours ago
0 ONEWEB-0048
1 45153U 20008Y   25287.88385486  .00000569  00000-0  15932-2 0  9994
2 45153  87.8754  85.1997 0001659  93.5488 266.5829 13.10378448275681
Epoch: 2025-10-14T21:12Z
TLE epoch observation values (Epoch: 2025-10-14T21:12:45.059Z)
Latitude
-0.00005°
Longitude
103.34607°
Altitude
1,224.658 km
Speed
7.242 km/s
True Right ascension
05h 40m 47s
True Declination
0° 00' 00"
Sunlit
Object was in daylight at epoch
Visualization orbit readout
Latitude
Unknown
Longitude
Unknown
Altitude
Unknown
Speed
Unknown
Apparent Right ascension
Unknown
Apparent Declination
Unknown
Sunlit
N/A
Visualization observer readout
Local Sidereal Time
02:04:51
Azimuth
Unknown
Elevation
Unknown
Doppler factor
Unknown
Orbital elements
Apogee altitude
1,220.076 km
Perigee altitude
1,217.555 km
Semi-major axis
7,596.952 km
Eccentricity
0.00017
Inclination
87.8754°
RAAN
85.1997°
Arg. of periapsis
93.5488°
True anomaly
266.56392°
Mean anomaly
266.5829°
Eccentric anomaly
266.57341°
Mean motion
3.27781 °/min
Orbital period
109.83 mins
BSTAR
0.0015932
Loading maneuver chart data...
Computing Atmospheric mass density...
Loading historical data...
Loading historical data...
Loading historical data...
Loading historical data...
Loading historical data...
Loading historical data...
Loading historical data...

Documentation

Showing up to 5 results
|